Vorticity
5 8 6 6 6 5 10 6 4 8 9 6 10 7 6 8 16 13 17 18 6 9 5 6 39 9 1 -6 6 15 4 10
7 8 8 8 7 4 9 3 6 8 10 5 7 5 6 6 16 11 14 15 19 5 6 -3 8 -1 3 7 7 8 14 2
7 8 17 5 5 5 8 6 11 9 7 5 6 7 8 6 12 10 15 20 15 13 4 4 27 -3 1 -3 -2 17 -0 10
8 12 12 7 7 7 8 6 12 8 6 3 6 7 11 7 8 14 11 14 17 14 12 18 3 9 37 -15 2 24 4 17
5 11 8 9 7 6 5 4 11 8 7 5 4 4 13 11 6 7 12 19 12 18 17 8 37 3 -16 2 11 9 12 -2
6 10 7 6 7 10 6 4 11 9 8 8 3 4 8 13 11 7 8 10 10 15 16 -2 -4 14 11 16 11 6 3 -1
13 12 9 6 6 2 6 5 11 8 6 8 2 7 5 13 10 9 11 8 15 27 9 6 19 26 21 16 7 2 10 -9
9 6 13 13 10 7 6 5 10 6 8 9 1 5 3 11 8 5 10 12 13 24 15 25 16 26 19 -14 3 2 -13 -6
8 14 12 16 5 11 5 6 10 6 7 7 4 0 6 5 10 11 4 12 22 16 0 7 7 42 40 -3 -3 10 24 32
2 19 5 9 5 8 8 10 5 8 5 5 2 2 5 4 5 6 12 7 7 20 23 4 3 10 6 9 23 46 15 19
24 15 4 7 6 6 6 7 7 13 7 6 2 -0 8 4 4 3 8 6 8 6 9 12 10 10 12 12 11 7 10 8
19 6 3 4 5 6 8 4 3 4 9 10 7 3 9 5 4 3 1 7 9 8 7 5 6 8 8 7 7 9 11 10
8 2 1 13 10 1 1 3 4 7 4 11 10 6 8 6 5 4 2 2 4 5 6 7 8 7 4 4 6 11 9 9
10 -1 5 7 9 5 3 4 3 4 6 9 9 6 8 7 7 5 3 3 3 2 4 6 6 4 3 6 7 6 3 3
8 9 1 4 4 7 3 7 4 1 9 11 8 6 7 7 6 7 6 5 5 3 1 2 4 4 6 8 7 8 8 7
-1 17 7 10 6 4 4 5 -1 2 13 10 6 6 5 6 5 5 7 8 7 6 5 5 3 5 4 2 3 7 6 6
15 11 -4 -1 4 5 3 4 9 27 -12 14 7 11 3 2 8 6 7 6 7 5 5 4 3 4 7 4 1 3 4 7
17 12 11 23 3 8 22 -4 21 8 17 6 18 18 31 6 14 2 -0 2 4 7 7 10 13 13 7 7 6 8 6 7
34 18 15 5 12 13 -12 2 3 7 3 3 -3 3 8 12 15 12 19 13 6 6 4 2 1 8 7 12 5 7 8 9
Height
5727 5730 5735 5736 5735 5734 5735 5734 5733 5731 5730 5731 5731 5730 5728 5725 5722 5721 5722 5724 5724 5725 5727 5727 5728 5734 5739 5744 5748 5752 5755 5757
5718 5721 5726 5729 5729 5729 5730 5729 5728 5727 5726 5727 5726 5726 5724 5722 5719 5717 5717 5719 5721 5722 5723 5725 5726 5731 5735 5738 5743 5747 5750 5755
5708 5712 5717 5721 5723 5722 5724 5723 5723 5722 5723 5723 5722 5722 5720 5719 5716 5714 5713 5714 5715 5718 5721 5722 5723 5727 5728 5731 5737 5744 5747 5749
5698 5703 5709 5712 5715 5717 5718 5717 5717 5717 5718 5719 5718 5717 5717 5715 5714 5712 5710 5710 5711 5713 5716 5718 5719 5725 5724 5726 5729 5735 5741 5744
5688 5695 5700 5705 5708 5709 5711 5712 5712 5712 5713 5715 5714 5714 5713 5712 5711 5710 5709 5708 5708 5710 5711 5714 5716 5718 5718 5724 5725 5728 5732 5736
5679 5687 5692 5695 5699 5701 5704 5705 5706 5707 5709 5710 5710 5710 5710 5709 5708 5707 5706 5706 5705 5706 5707 5709 5710 5712 5713 5717 5720 5723 5726 5729
5670 5677 5680 5687 5691 5694 5697 5699 5700 5702 5704 5706 5707 5706 5706 5705 5705 5704 5704 5702 5702 5702 5703 5703 5703 5704 5708 5711 5715 5717 5718 5722
5661 5669 5675 5682 5686 5689 5691 5693 5695 5696 5699 5701 5703 5703 5702 5701 5701 5701 5701 5699 5698 5697 5700 5699 5698 5698 5700 5705 5708 5711 5714 5716
5654 5662 5670 5676 5679 5682 5685 5688 5689 5690 5694 5696 5699 5699 5699 5698 5697 5698 5698 5697 5697 5695 5696 5696 5695 5694 5698 5699 5700 5704 5705 5709
5648 5656 5665 5671 5673 5676 5679 5682 5684 5685 5688 5692 5694 5696 5696 5695 5695 5695 5695 5695 5694 5694 5693 5692 5693 5693 5694 5696 5697 5698 5702 5704
5642 5649 5659 5664 5666 5669 5673 5677 5679 5680 5682 5686 5688 5690 5691 5691 5691 5691 5692 5691 5692 5692 5693 5693 5693 5693 5694 5694 5694 5693 5695 5699
5638 5645 5651 5656 5660 5662 5666 5670 5672 5674 5676 5678 5681 5684 5686 5687 5687 5687 5688 5688 5688 5689 5690 5691 5692 5692 5692 5691 5691 5693 5694 5697
5632 5637 5642 5648 5654 5656 5659 5662 5665 5668 5670 5673 5675 5678 5681 5682 5682 5683 5683 5684 5685 5686 5687 5687 5687 5687 5688 5690 5691 5692 5693 5693
5627 5632 5636 5642 5646 5649 5652 5655 5659 5663 5664 5666 5669 5671 5673 5675 5677 5678 5679 5680 5681 5682 5682 5683 5683 5684 5684 5685 5685 5686 5686 5687
5619 5625 5630 5634 5639 5643 5646 5650 5653 5655 5658 5661 5662 5663 5665 5667 5670 5673 5675 5676 5676 5676 5677 5677 5678 5679 5679 5680 5680 5680 5680 5680
5612 5617 5623 5629 5632 5636 5640 5642 5645 5647 5649 5651 5654 5657 5659 5662 5663 5664 5667 5669 5669 5670 5671 5672 5673 5675 5674 5673 5673 5673 5674 5673
5608 5612 5616 5620 5624 5628 5632 5635 5638 5640 5643 5644 5646 5650 5652 5654 5656 5657 5658 5659 5661 5662 5664 5665 5666 5667 5667 5666 5666 5665 5664 5665
5603 5606 5610 5614 5619 5622 5624 5628 5630 5634 5636 5638 5640 5642 5644 5646 5648 5650 5650 5651 5653 5654 5656 5656 5657 5657 5657 5656 5655 5655 5656 5658
5592 5596 5601 5606 5610 5614 5616 5620 5623 5626 5628 5631 5633 5634 5636 5638 5640 5642 5643 5644 5644 5645 5646 5647 5648 5649 5647 5647 5648 5647 5647 5647